CFC3684 CYTR-CYQQ

Flight info

Callsign CFC3684
Flight time N/A
Altitude 38000
Route YSB DCT YPL DCT POPLR/N0470F400 DCT ELTAX DCT VINKO DCT SATOV DCT YDC
Aircraft A333/H-SDE3GHIJ2J3J5M1RVWXY/LB2D1

Departure

Time 2026-05-07 01:05
Airport CFB Trenton (CYTR)

Arrival

Time N/A
Airport Comox Valley International Airport / CFB Comox (CYQQ)
Time Latitude Longitude Altitude Speed Heading
2026-05-07 00:50 44.11525 -77.54165 281 ft 0 kts 78°
2026-05-07 00:55 44.11523 -77.54177 284 ft 3 kts 103°
2026-05-07 00:55 44.11532 -77.54202 280 ft 3 kts 157°
2026-05-07 00:55 44.11540 -77.54206 288 ft 0 kts 170°
2026-05-07 00:58 44.11539 -77.54206 288 ft 0 kts 170°
2026-05-07 00:58 44.11530 -77.54203 280 ft 3 kts 170°
2026-05-07 00:59 44.11452 -77.54200 280 ft 8 kts 185°
2026-05-07 00:59 44.11410 -77.54199 280 ft 11 kts 176°
2026-05-07 00:59 44.11345 -77.54184 280 ft 3 kts 156°
2026-05-07 01:00 44.11335 -77.54155 280 ft 4 kts 95°
2026-05-07 01:00 44.11350 -77.54119 280 ft 8 kts 55°
2026-05-07 01:00 44.11391 -77.54045 280 ft 11 kts 51°
2026-05-07 01:00 44.11451 -77.53951 281 ft 15 kts 49°
2026-05-07 01:01 44.11523 -77.53827 282 ft 18 kts 52°
2026-05-07 01:01 44.11607 -77.53690 282 ft 19 kts 51°
2026-05-07 01:01 44.11697 -77.53533 283 ft 22 kts 59°
2026-05-07 01:01 44.11689 -77.53353 282 ft 20 kts 122°
2026-05-07 01:02 44.11612 -77.53178 282 ft 22 kts 118°
2026-05-07 01:02 44.11636 -77.52987 284 ft 21 kts 53°
2026-05-07 01:02 44.11731 -77.52823 287 ft 23 kts 51°
2026-05-07 01:02 44.11837 -77.52643 285 ft 26 kts 50°
2026-05-07 01:03 44.11956 -77.52439 287 ft 29 kts 50°
2026-05-07 01:03 44.12093 -77.52218 291 ft 32 kts 49°
2026-05-07 01:03 44.12237 -77.51975 288 ft 34 kts 51°
2026-05-07 01:03 44.12389 -77.51716 293 ft 36 kts 50°
2026-05-07 01:04 44.12559 -77.51650 294 ft 10 kts 312°
2026-05-07 01:04 44.12553 -77.51701 295 ft 13 kts 237°
2026-05-07 01:04 44.12293 -77.52172 286 ft 116 kts 229°
2026-05-07 01:04 44.11558 -77.53394 412 ft 206 kts 225°
2026-05-07 01:05 44.10524 -77.55008 1394 ft 238 kts 227°
2026-05-07 01:05 44.09319 -77.56805 2643 ft 273 kts 230°
2026-05-07 01:05 44.08008 -77.58786 3981 ft 277 kts 230°
2026-05-07 01:05 44.06715 -77.60739 5342 ft 274 kts 230°
2026-05-07 01:06 44.05419 -77.62701 6697 ft 276 kts 230°
2026-05-07 01:06 44.04112 -77.64684 8045 ft 281 kts 230°
2026-05-07 01:06 44.02776 -77.66718 9486 ft 288 kts 230°
2026-05-07 01:06 44.01412 -77.68804 10871 ft 295 kts 231°
2026-05-07 01:07 44.00041 -77.70906 12309 ft 299 kts 231°
2026-05-07 01:07 43.98623 -77.73084 13852 ft 300 kts 231°
2026-05-07 01:07 43.97227 -77.75230 15274 ft 298 kts 231°
2026-05-07 01:07 43.95863 -77.77326 16733 ft 294 kts 231°
2026-05-07 01:08 43.94572 -77.79478 18232 ft 287 kts 233°
2026-05-07 01:08 43.93377 -77.81645 19519 ft 279 kts 242°
2026-05-07 01:08 43.92823 -77.84175 20819 ft 273 kts 260°
2026-05-07 01:08 43.92596 -77.86756 22096 ft 266 kts 260°
2026-05-07 01:09 43.92420 -77.89270 23351 ft 260 kts 268°
2026-05-07 01:09 43.92915 -77.91647 24363 ft 261 kts 294°
2026-05-07 01:09 43.94244 -77.93409 25182 ft 267 kts 310°
2026-05-07 01:09 43.95684 -77.95012 25822 ft 264 kts 310°
2026-05-07 01:10 43.97112 -77.96591 26480 ft 261 kts 309°
2026-05-07 01:10 43.98529 -77.98147 27130 ft 259 kts 309°
2026-05-07 01:10 43.99939 -77.99687 27732 ft 257 kts 310°
2026-05-07 01:10 44.01337 -78.01208 28325 ft 255 kts 310°
2026-05-07 01:11 44.02732 -78.02717 28899 ft 254 kts 310°
2026-05-07 01:11 44.04130 -78.04227 29493 ft 255 kts 310°
2026-05-07 01:11 44.05537 -78.05748 30078 ft 257 kts 310°
2026-05-07 01:11 44.06949 -78.07273 30581 ft 257 kts 310°
2026-05-07 01:12 44.08365 -78.08799 31091 ft 258 kts 309°
2026-05-07 01:12 44.09784 -78.10326 31618 ft 258 kts 309°
2026-05-07 01:12 44.11207 -78.11851 32125 ft 258 kts 308°
2026-05-07 01:12 44.12626 -78.13369 32634 ft 257 kts 308°
2026-05-07 01:13 44.14048 -78.14883 33161 ft 257 kts 308°
2026-05-07 01:13 44.15464 -78.16384 33654 ft 256 kts 307°
2026-05-07 01:13 44.16885 -78.17885 34121 ft 255 kts 307°
2026-05-07 01:13 44.18298 -78.19370 34510 ft 255 kts 307°
2026-05-07 01:14 44.19714 -78.20853 34885 ft 254 kts 307°
2026-05-07 01:14 44.21128 -78.22328 35245 ft 254 kts 308°
2026-05-07 01:14 44.22544 -78.23801 35605 ft 254 kts 308°
2026-05-07 01:14 44.23943 -78.25253 35929 ft 254 kts 308°
2026-05-07 01:15 44.25381 -78.26741 36266 ft 254 kts 308°
2026-05-07 01:15 44.26784 -78.28190 36585 ft 255 kts 308°
2026-05-07 01:15 44.28211 -78.29661 36906 ft 255 kts 308°
2026-05-07 01:15 44.29642 -78.31133 37199 ft 256 kts 308°
2026-05-07 01:16 44.31073 -78.32604 37476 ft 256 kts 308°
2026-05-07 01:16 44.32512 -78.34080 37754 ft 257 kts 308°
2026-05-07 01:16 44.33954 -78.35558 38030 ft 257 kts 308°
2026-05-07 01:16 44.35401 -78.37038 38308 ft 258 kts 308°
2026-05-07 01:17 44.36854 -78.38523 38528 ft 259 kts 308°
2026-05-07 01:17 44.38312 -78.40011 38758 ft 260 kts 309°
2026-05-07 01:17 44.39774 -78.41502 38940 ft 260 kts 309°
2026-05-07 01:17 44.41294 -78.42922 39128 ft 273 kts 320°
2026-05-07 01:18 44.43102 -78.43916 39309 ft 279 kts 323°
2026-05-07 01:18 44.44884 -78.44968 39445 ft 278 kts 321°
2026-05-07 01:18 44.46630 -78.46115 39594 ft 276 kts 319°
2026-05-07 01:18 44.48328 -78.47364 39705 ft 277 kts 316°
2026-05-07 01:19 44.50022 -78.48785 39481 ft 290 kts 314°
2026-05-07 01:19 44.51717 -78.50421 39316 ft 303 kts 311°
2026-05-07 01:19 44.53470 -78.52197 39164 ft 319 kts 312°
2026-05-07 01:19 44.55315 -78.54054 39032 ft 334 kts 313°
2026-05-07 01:20 44.57252 -78.55989 38901 ft 349 kts 313°
2026-05-07 01:20 44.59277 -78.57996 38789 ft 364 kts 314°
2026-05-07 01:20 44.61383 -78.60080 38701 ft 377 kts 314°
2026-05-07 01:20 44.63547 -78.62246 38705 ft 388 kts 314°
2026-05-07 01:21 44.65769 -78.64491 38677 ft 399 kts 314°
2026-05-07 01:21 44.70361 -78.69185 38705 ft 417 kts 314°
2026-05-07 01:22 44.75121 -78.74113 38815 ft 432 kts 314°
2026-05-07 01:22 44.79993 -78.79204 38993 ft 445 kts 314°
2026-05-07 01:22 44.82490 -78.81828 39101 ft 451 kts 314°
2026-05-07 01:23 44.85009 -78.84481 39238 ft 456 kts 315°
2026-05-07 01:23 44.87563 -78.87179 39378 ft 460 kts 315°
2026-05-07 01:23 44.90123 -78.89888 39611 ft 461 kts 315°
2026-05-07 01:23 44.92696 -78.92608 39854 ft 462 kts 315°
2026-05-07 01:24 44.95264 -78.95322 39976 ft 461 kts 315°
2026-05-07 01:24 45.00357 -79.00680 39990 ft 456 kts 315°
2026-05-07 01:25 45.05464 -79.06044 40039 ft 458 kts 315°
2026-05-07 01:25 45.10594 -79.11432 40067 ft 460 kts 316°
2026-05-07 01:26 45.15741 -79.16836 40086 ft 461 kts 316°
2026-05-07 01:26 45.20901 -79.22245 40136 ft 461 kts 316°
2026-05-07 01:27 45.26063 -79.27652 40150 ft 462 kts 316°
2026-05-07 01:27 45.31237 -79.33065 40186 ft 463 kts 316°
2026-05-07 01:28 45.36428 -79.38494 40188 ft 463 kts 316°
2026-05-07 01:28 45.41601 -79.43946 39558 ft 460 kts 314°
2026-05-07 01:28 45.44096 -79.46784 38947 ft 459 kts 313°
2026-05-07 01:29 45.46574 -79.49667 38314 ft 459 kts 313°
2026-05-07 01:29 45.49059 -79.52533 38013 ft 460 kts 313°
2026-05-07 01:29 45.51572 -79.55382 37954 ft 463 kts 314°